TimeEDT,TemperatureF,Dew PointF,Humidity,Sea Level PressureIn,VisibilityMPH,Wind Direction,Wind SpeedMPH,Gust SpeedMPH,PrecipitationIn,Events,Conditions,WindDirDegrees,DateUTC
12:56 AM,57.0,45.0,64,29.76,10.0,WNW,15.0,21.9,N/A,,Overcast,300,2012-10-29 04:56:00
1:56 AM,55.9,44.1,64,29.76,10.0,WNW,12.7,23.0,N/A,,Overcast,290,2012-10-29 05:56:00
2:56 AM,53.1,41.0,64,29.77,10.0,WNW,13.8,19.6,N/A,,Overcast,300,2012-10-29 06:56:00
3:16 AM,53.6,41.0,62,29.76,10.0,WNW,13.8,21.9,N/A,,Overcast,300,2012-10-29 07:16:00
3:56 AM,52.0,39.9,63,29.77,10.0,NW,16.1,27.6,N/A,,Overcast,310,2012-10-29 07:56:00
4:56 AM,50.0,39.9,68,29.76,10.0,WNW,13.8,19.6,N/A,,Partly Cloudy,290,2012-10-29 08:56:00
5:56 AM,48.2,39.2,71,29.77,10.0,WNW,10.4,-,N/A,,Partly Cloudy,300,2012-10-29 09:56:00
6:56 AM,46.9,39.9,77,29.79,10.0,West,9.2,-,N/A,,Clear,280,2012-10-29 10:56:00
7:56 AM,46.0,39.0,76,29.81,10.0,West,8.1,-,N/A,,Clear,280,2012-10-29 11:56:00
8:56 AM,48.9,39.0,69,29.83,10.0,WNW,13.8,20.7,N/A,,Clear,290,2012-10-29 12:56:00
9:56 AM,52.0,39.0,61,29.82,10.0,WNW,17.3,27.6,N/A,,Clear,300,2012-10-29 13:56:00
10:56 AM,55.0,39.0,55,29.81,10.0,WNW,13.8,24.2,N/A,,Clear,290,2012-10-29 14:56:00
12:56 PM,60.1,39.9,47,29.77,10.0,West,15.0,26.5,N/A,,Clear,270,2012-10-29 16:56:00
1:56 PM,63.0,39.0,41,29.74,10.0,WNW,19.6,26.5,N/A,,Clear,290,2012-10-29 17:56:00
2:56 PM,63.0,37.9,40,29.71,10.0,West,20.7,28.8,N/A,,Clear,280,2012-10-29 18:56:00
3:56 PM,64.0,35.1,34,29.70,10.0,West,20.7,27.6,N/A,,Clear,280,2012-10-29 19:56:00
4:56 PM,63.0,33.1,33,29.69,10.0,WNW,18.4,27.6,N/A,,Clear,290,2012-10-29 20:56:00
5:56 PM,61.0,34.0,36,29.69,10.0,West,11.5,21.9,N/A,,Clear,270,2012-10-29 21:56:00
6:56 PM,53.1,37.9,57,29.71,10.0,West,6.9,-,N/A,,Clear,260,2012-10-29 22:56:00
7:56 PM,51.8,37.4,58,29.72,10.0,West,6.9,-,N/A,,Clear,270,2012-10-29 23:56:00
8:56 PM,50.0,37.9,63,29.75,10.0,West,8.1,-,N/A,,Clear,260,2012-10-30 00:56:00
9:56 PM,48.9,36.0,61,29.78,10.0,West,8.1,-,N/A,,Clear,280,2012-10-30 01:56:00
10:56 PM,48.9,34.0,56,29.79,10.0,West,6.9,-,N/A,,Clear,280,2012-10-30 02:56:00
11:56 PM,48.0,33.1,56,29.80,10.0,West,8.1,-,N/A,,Clear,260,2012-10-30 03:56:00